Tracking 20092 objects as of 14-Dec-2019
HD Live streaming from Space Station
objects crossing your sky now

FENGYUN 1C DEB

Track FENGYUN 1C DEB now!
10-day predictions


NORAD ID: 31714
Int'l Code: 1999-025CDM
Perigee: 779.4 km
Apogee: 865.6 km
Inclination: 99.0 °
Period: 101.2 minutes
Semi major axis: 7193 km
RCS: 0.0102 m2 (small)
Launch date: May 10, 1999
Source: People's Republic of China (PRC)
Launch site: Taiyaun Space Center, China (TSC)

Note: This is SATELLITE DEBRIS
aabbcc
Your satellite tracking list
Your tracking list is empty




NASA's NSSDC Master Catalog

Two Line Element Set (TLE):
1 31714U 99025CDM 19347.79462972 +.00001122 +00000-0 +50992-3 0  9995
2 31714 099.0442 101.7484 0059953 241.7784 272.2542 14.22965989645762
Source of the keplerian elements: AFSPC